Location: ????????
(37.6846°N, 24.0673°E)
Time: 14:29:46
(UTC+00:00)

Cosmos 2151 Rocket - Pass Details

Date: 14 July 2020
Orbit: 616 x 643 km, 82.5° (Epoch: 03 August)

Event Time Altitude Azimuth Distance (km) Brightness Sun altitude
Rises 02:33:57 0° 183° (S) 2,933 6.7 -7.5°
Reaches altitude 10° 02:36:11 10° 182° (S) 2,026 5.9 -7.1°
Maximum altitude 02:40:41 81° 96° (E) 652 3.8 -6.4°
Drops below altitude 10° 02:45:11 10° 9° (N) 2,029 6.9 -5.7°
Sets 02:47:26 0° 9° (N) 2,937 7.7 -5.3°
